Location: Bourg-d�Oueil
(42.8588°N, 0.4991°E)
Time: 14:46:09
(UTC+00:00)

Cosmos 2322 Rocket - Pass Details

Date: 16 June 2021
Orbit: 833 x 850 km, 71.0° (Epoch: 03 August)

Event Time Altitude Azimuth Distance (km) Brightness Sun altitude
Rises 21:42:20 0° 223° (SW) 3,399 5.2 -16.7°
Reaches altitude 10° 21:44:54 10° 230° (SW) 2,469 4.5 -16.9°
Maximum altitude 21:50:17 43° 301° (WNW) 1,177 3.4 -17.4°
Drops below altitude 10° 21:55:43 10° 13° (NNE) 2,485 5.3 -17.9°
Sets 21:58:18 0° 20° (NNE) 3,424 6.0 -18.2°
